Havana, Cuba

1:32 PM CST on December 15, 2018 (GMT -0500)
Jose Marti International

Weather History for MUHA - October, 2018

Change the Weather History Date:

Friday, October 12, 2018

  Actual Average Record
Temperature  
Mean Temperature 79 °F -  
Max Temperature 87 °F 82 °F 91 °F (2006)
Min Temperature 71 °F 66 °F 66 °F (2012)
Cooling Degree Days 14    
Growing Degree Days 29 (Base 50)    
Moisture  
Dew Point 74 °F    
Average Humidity 86    
Maximum Humidity 100    
Minimum Humidity 61    
Precipitation  
Precipitation 0.00 in - - ()
Sea Level Pressure  
Sea Level Pressure 29.88 in    
Wind  
Wind Speed 3 mph ()    
Max Wind Speed 10 mph    
Max Gust Speed 22 mph    
Visibility 5.4 miles    
Events      
Averages and records for this station are not official NWS values.
T = Trace of Precipitation, MM = Missing Value Source: Averaged Metar Reports

Daily Weather History Graph

Daily Weather History Graph

Search for Another Location

Airport or City:

Astronomy

Oct. 12, 2018 Rise Set
Actual Time 7:25 AM CDT 7:06 PM CDT
Civil Twilight 7:02 AM CDT 7:29 PM CDT
Nautical Twilight 6:36 AM CDT 7:55 PM CDT
Astronomical Twilight 6:10 AM CDT 8:21 PM CDT
Moon 10:40 AM CDT (10/12) 10:02 PM CDT (10/12)
Length of Visible Light 12h 26m
Length of Day
11h 41m
Waxing Crescent, 14% of the Moon is Illuminated
Oct 12
Waxing Crescent
Oct 16
First Quarter
Oct 24
Full
Oct 31
Last Quarter
Nov 7
New

Hourly Weather History & Observations

Time (CDT) Temp. Heat Index Dew Point Humidity Pressure Visibility Wind Dir Wind Speed Gust Speed Precip Events Conditions
12:55 AM 75.2 °F - 75.2 °F 100% 29.89 in 5.6 mi SSE 1.2 mph - N/A   Partly Cloudy
1:55 AM 73.4 °F - 73.4 °F 100% 29.89 in 5.6 mi Calm Calm - N/A   Partly Cloudy
2:55 AM 73.4 °F - 73.4 °F 100% 29.89 in 5.6 mi WSW 3.5 mph - N/A   Partly Cloudy
3:55 AM 73.4 °F - 71.6 °F 94% 29.89 in 5.6 mi Calm Calm - N/A   Partly Cloudy
4:55 AM 71.6 °F - 71.6 °F 100% 29.89 in 4.3 mi SW 2.3 mph - N/A   Partly Cloudy
5:00 AM 72 °F - 72 °F 100% 29.88 in 4 mi WSW 2.2 mph - -   Haze
5:24 AM 71.6 °F - 71.6 °F 100% 29.89 in 3.1 mi WSW 1.2 mph - N/A   Partly Cloudy
5:55 AM 71.6 °F - 71.6 °F 100% 29.89 in 4.3 mi Calm Calm - N/A   Partly Cloudy
6:55 AM 71.6 °F - 71.6 °F 100% 29.89 in 5.0 mi South 2.3 mph - N/A   Partly Cloudy
7:55 AM 71.6 °F - 71.6 °F 100% 29.92 in 5.6 mi Variable 2.3 mph - N/A   Partly Cloudy
8:55 AM 75.2 °F - 75.2 °F 100% 29.92 in 5.6 mi SE 2.3 mph - N/A   Partly Cloudy
9:55 AM 80.6 °F 87.1 °F 77.0 °F 89% 29.92 in 5.6 mi SW 3.5 mph - N/A   Partly Cloudy
10:55 AM 84.2 °F 90.9 °F 73.4 °F 70% 29.92 in 5.6 mi Variable 2.3 mph - N/A   Partly Cloudy
11:00 AM 85 °F - 74 °F 63% 29.93 in 6 mi 2.2 mph - -   Haze
11:55 AM 86.0 °F 95.1 °F 75.2 °F 70% 29.92 in 5.6 mi SSW 3.5 mph - N/A   Scattered Clouds
12:55 PM 86.0 °F 95.1 °F 75.2 °F 70% 29.92 in 5.6 mi Variable 2.3 mph - N/A   Scattered Clouds
1:55 PM 86.0 °F 95.1 °F 75.2 °F 70% 29.89 in 5.6 mi West 9.2 mph - N/A   Scattered Clouds
2:55 PM 87.8 °F 97.6 °F 75.2 °F 66% 29.86 in 5.6 mi NW 10.4 mph 21.9 mph N/A   Scattered Clouds
3:55 PM 87.8 °F 95.6 °F 73.4 °F 62% 29.83 in 5.6 mi NW 9.2 mph - N/A   Scattered Clouds
4:55 PM 86.0 °F 95.1 °F 75.2 °F 70% 29.83 in 5.6 mi NW 6.9 mph - N/A   Partly Cloudy
5:00 PM 86 °F - 74 °F 61% 29.83 in 6 mi 6.7 mph - -   Haze
5:55 PM 86.0 °F 93.4 °F 73.4 °F 66% 29.83 in 5.6 mi NW 6.9 mph - N/A   Partly Cloudy
6:55 PM 82.4 °F 89.5 °F 75.2 °F 79% 29.83 in 5.6 mi NNW 6.9 mph - N/A   Partly Cloudy
7:55 PM 80.6 °F 86.2 °F 75.2 °F 84% 29.86 in 5.6 mi NNW 3.5 mph - N/A   Partly Cloudy
8:55 PM 78.8 °F - 75.2 °F 89% 29.86 in 5.6 mi NNW 3.5 mph - N/A   Partly Cloudy
9:11 PM - - - N/A% - - North - - N/A   Unknown
9:55 PM 78.8 °F - 75.2 °F 89% 29.89 in 5.6 mi Variable 2.3 mph - N/A   Partly Cloudy
10:55 PM 75.2 °F - 75.2 °F 100% 29.89 in 5.6 mi SE 2.3 mph - N/A   Partly Cloudy
11:00 PM 76 °F - 74 °F 94% 29.89 in 6 mi SSW 2.2 mph - -   Haze
11:55 PM 75.2 °F - 75.2 °F 100% 29.89 in 5.6 mi Calm Calm - N/A   Partly Cloudy